Tracking 18850 objects as of 22-Nov-2017
HD Live streaming from Space Station
objects crossing your sky now

FENGYUN 1C DEB

Track FENGYUN 1C DEB now!
10-day predictions


NORAD ID: 29786
Int'l Code: 1999-025CC
Perigee: 818.1 km
Apogee: 931.3 km
Inclination: 99.0 °
Period: 102.3 minutes
Semi major axis: 7245 km
RCS: 0.052 m2 (small)
Launch date: May 10, 1999
Source: People's Republic of China (PRC)
Launch site: Taiyaun Space Center, China (TSC)

Note: This is SATELLITE DEBRIS
aabbcc
Your satellite tracking list
Your tracking list is empty




NASA's NSSDC Master Catalog

Two Line Element Set (TLE):
1 29786U 99025CC  17325.62634487 -.00000068 +00000-0 -13098-4 0  9996
2 29786 099.0372 347.5024 0078138 294.2886 186.5262 14.07609744557431
Source of the keplerian elements: AFSPC